[[{"header":{"parameterUnit":"m.s-1","parameterCategory":1,"la1":30.2991,"la2":30.254,"lo1":-89.0895,"lo2":-89.0444,"dy":0.0017,"dx":0.0017,"nx":28,"ny":28,"refTime":"2023-09-27T09:00:00:Z","depth":0,"parameterNumber":2,"parameterNumberName":"U-component_of_WINDS"},"data":[0,0,0,0,0,0,0,0,0,0,0,0,0,0,0,0,0,0,0,0,0,0,0,0,0,0,0,0,0,0,0,0,0,0,0,0,0,0,0,0,0,0,0,0,0,0,0,0,0,0,0,0,0,0,0,0,0,0,-5.1746,-5.1747,0,-5.1777,-5.1778,-5.1778,-5.1636,-5.1632,-5.1627,-5.1624,-5.1657,-5.1662,-5.1667,0,0,0,0,0,0,0,0,0,0,0,0,0,-5.1567,-5.1571,-5.1746,-5.1747,-5.1747,-5.1777,-5.1778,-5.1778,-5.1636,-5.1631,-5.1626,-5.1622,-5.1656,-5.1661,-5.1667,0,0,0,0,0,0,0,0,0,0,0,0,0,-5.1626,-5.1572,-5.1746,-5.168,-5.1674,-5.1777,-5.1778,-5.1778,-5.1638,-5.1631,-5.1625,-5.1619,-5.1654,-5.1661,-5.1668,-5.1836,0,0,-5.169,-5.1693,0,0,0,0,0,0,0,0,-5.1623,-5.1633,-5.1689,-5.1685,-5.1679,-5.1696,-5.1726,-5.1798,-5.1639,-5.1652,-5.1623,-5.1616,-5.1675,-5.168,-5.17,-5.1838,-5.1839,-5.169,-5.1695,-5.1698,-5.17,0,0,0,0,0,0,0,-5.1619,-5.1631,-5.1758,-5.169,-5.1684,-5.1649,-5.1651,-5.1739,-5.1698,-5.165,-5.164,-5.1645,-5.1671,-5.1693,-5.17,-5.184,-5.169,-5.1696,-5.1701,-5.1704,-5.2117,-5.2124,0,0,0,0,0,0,-5.1623,-5.1628,-5.1758,-5.1759,-5.1635,-5.1658,-5.1659,-5.1697,-5.1697,-5.1691,-5.1651,-5.1639,-5.1684,-5.1691,-5.17,-5.1897,-5.1698,-5.1704,-5.1708,-5.2111,-5.2119,-5.2126,0,0,0,0,0,0,-5.162,-5.1636,-5.1756,-5.1691,-5.1704,-5.1667,-5.1711,-5.1701,-5.1722,-5.1697,-5.1689,-5.1681,-5.168,-5.169,-5.1803,-5.1896,-5.1707,-5.1714,-5.2103,-5.2113,-5.2122,-5.2293,0,0,0,0,0,0,-5.1615,-5.1636,-5.1699,-5.1694,-5.1708,-5.1859,-5.1716,-5.1706,-5.1735,-5.172,-5.1723,-5.1718,-5.1675,-5.1793,-5.181,-5.1903,-5.172,-5.2094,-5.2107,-5.2119,-5.2279,-5.2308,-5.2332,0,0,0,0,0,-5.161,-5.1746,-5.1703,-5.1719,-5.1786,-5.1864,-5.1873,-5.1821,-5.1743,-5.1807,-5.179,-5.1718,-5.1884,-5.1806,-5.1824,-5.192,-5.2088,-5.2104,-5.2118,-5.2267,-5.2302,-5.2332,0,0,0,0,0,0,-5.1764,-5.1744,-5.1696,-5.1835,-5.1853,-5.184,-5.1919,-5.1859,-5.19,-5.1884,-5.1818,-5.182,-5.1945,-5.1943,-5.1858,-5.2083,-5.1972,-5.1992,-5.2079,-5.2113,-5.2139,-5.2137,-5.1725,0,0,0,0,0,-5.1815,-5.188,-5.1859,-5.1983,-5.1994,-5.1956,-5.1988,-5.1946,-5.1962,-5.1969,-5.196,-5.1979,-5.2035,-5.2074,-5.2124,-5.2278,-5.2277,-5.2353,-5.238,-5.2402,-5.242,-5.2501,-5.2535,-5.2176,-5.2176,-5.2175,0,0,-5.1919,-5.1916,-5.1961,-5.2014,-5.2023,-5.2092,-5.1963,-5.2041,-5.2092,-5.1981,-5.2087,-5.2082,-5.2098,-5.2233,-5.2292,-5.2236,-5.2518,-5.2421,-5.2439,-5.2444,-5.252,-5.2554,-5.2585,-5.2186,-5.2184,-5.2182,0,0,-5.2145,-5.215,-5.2254,-5.2265,-5.2279,-5.2253,-5.2278,-5.2275,-5.2267,-5.2372,-5.229,-5.235,-5.2448,-5.2463,-5.2484,-5.2716,-5.2651,-5.2735,-5.2874,-5.2955,-5.2983,-5.3008,-5.3091,-5.3122,-5.2752,-5.2753,-5.2753,0,-5.2273,-5.2374,-5.2315,-5.2399,-5.2425,-5.2327,-5.2432,-5.2446,-5.2477,-5.2498,-5.2434,-5.2555,-5.256,-5.2696,-5.2753,-5.2773,-5.28,-5.2734,-5.2984,-5.3008,-5.303,-5.3109,-5.314,-5.2763,-5.2762,-5.2761,-5.276,0,-5.2531,-5.2602,-5.2685,-5.2716,-5.2751,-5.2846,-5.2802,-5.2845,-5.2801,-5.2781,-5.289,-5.2892,-5.2941,-5.297,-5.2928,-5.3101,-5.3066,-5.2995,-5.2882,-5.3075,-5.3148,-5.3178,-5.2777,-5.2774,-5.2771,-5.2768,0,0,-5.2855,-5.2853,-5.2884,-5.2898,-5.2907,-5.2961,-5.3051,-5.3098,-5.3137,-5.3161,-5.3236,-5.3321,-5.3255,-5.3279,-5.3237,-5.3308,-5.3493,-5.3227,-5.3227,-5.3277,-5.3684,-5.3739,-5.3774,-5.3449,-5.3455,-5.3459,-5.3683,0,-5.3077,-5.323,-5.318,-5.3336,-5.3401,-5.3309,-5.3388,-5.3403,-5.3387,-5.344,-5.3423,-5.3484,-5.3392,-5.3406,-5.3472,-5.3456,-5.3573,-5.3439,-5.3519,-5.3522,-5.3518,-5.3812,-5.3869,-5.4081,-5.3711,-5.3716,-5.3719,0,-5.3355,-5.3391,-5.3554,-5.3551,-5.3577,-5.3649,-5.3688,-5.374,-5.3755,-5.3738,-5.3765,-5.3709,-5.3798,-5.3686,-5.3808,-5.3718,-5.3748,-5.3745,-5.3752,-5.3758,-5.3633,-5.3826,-5.4147,-5.4179,-5.3764,-5.376,-5.3757,0,-5.3576,-5.3664,-5.3773,-5.3787,-5.3787,-5.384,-5.3843,-5.3851,-5.3883,-5.3918,-5.3938,-5.3983,-5.4008,-5.4045,-5.4003,-5.3925,-5.4132,-5.4016,-5.4121,-5.4123,-5.4169,-5.4167,-5.45,-5.4189,-5.4188,-5.4188,-5.4187,0,-5.3829,-5.3932,-5.3872,-5.3939,-5.4052,-5.3994,-5.4107,-5.41,-5.4108,-5.4173,-5.4096,-5.4158,-5.4098,-5.4155,-5.4123,-5.423,-5.4242,-5.4231,-5.4222,-5.4239,-5.424,-5.4257,-5.4241,-5.4196,-5.4194,-5.4192,-5.4191,0,-5.4094,-5.4058,-5.417,-5.4161,-5.4162,-5.4246,-5.4238,-5.43,-5.4278,-5.4361,-5.4377,-5.4344,-5.4407,-5.4369,-5.4433,-5.4411,-5.4551,-5.4521,-5.4546,-5.4538,-5.4646,-5.4636,-5.5001,-5.5046,-5.4706,-5.471,-5.4712,0,-5.4258,-5.4335,-5.4334,-5.4372,-5.4379,-5.444,-5.4472,-5.4418,-5.4454,-5.4477,-5.4537,-5.4593,-5.4635,-5.4741,-5.4723,-5.4772,-5.4743,-5.4867,-5.475,-5.4765,-5.4745,-5.4741,-5.4749,-5.4891,-5.4895,-5.4899,-5.4901,0,-5.4552,-5.4531,-5.4579,-5.4622,-5.4662,-5.4694,-5.4718,-5.4754,-5.4699,-5.4744,-5.4808,-5.4841,-5.4906,-5.4963,-5.5005,-5.5008,-5.4947,-5.4938,-5.4965,-5.4984,-5.4995,-5.4991,-5.4611,-5.493,-5.4927,-5.4925,-5.4924,-5.4922,-5.4772,-5.4836,-5.4846,-5.4903,-5.4915,-5.4941,-5.4999,-5.4984,-5.5036,-5.5084,-5.5049,-5.5125,-5.5138,-5.5187,-5.5199,-5.5257,-5.5207,-5.5246,-5.5256,-5.5267,-5.5282,-5.4986,-5.5265,-5.5264,-5.5263,-5.5262,-5.5262,0,-5.5062,-5.5064,-5.5117,-5.5154,-5.5199,-5.5136,-5.5161,-5.5203,-5.527,-5.5287,-5.533,-5.5403,-5.5458,-5.5445,-5.5495,-5.5545,-5.5518,-5.556,-5.5556,-5.5558,-5.5324,-5.5295,-5.5581,-5.5581,-5.5581,-5.558,-5.558,-5.558,-5.5219,-5.5324,-5.5304,-5.5416,-5.5416,-5.5489,-5.5508,-5.5532,-5.5545,-5.563,-5.5675,-5.5666,-5.5671,-5.5721,-5.5769,-5.5764,-5.5786,-5.5839,-5.5823,-5.5605,-5.5574,-5.5544,-5.5517,-5.5844,-5.5844,-5.6052,-5.6054,-5.6055]},{"header":{"parameterUnit":"m.s-1","parameterCategory":1,"la1":30.2991,"la2":30.254,"lo1":-89.0895,"lo2":-89.0444,"dy":0.0017,"dx":0.0017,"nx":28,"ny":28,"refTime":"2023-09-27T09:00:00:Z","depth":0,"parameterNumber":3,"parameterNumberName":"V-component_of_WINDS"},"data":[0,0,0,0,0,0,0,0,0,0,0,0,0,0,0,0,0,0,0,0,0,0,0,0,0,0,0,0,0,0,0,0,0,0,0,0,0,0,0,0,0,0,0,0,0,0,0,0,0,0,0,0,0,0,0,0,0,0,-3.3832,-3.3833,0,-3.3836,-3.3836,-3.3836,-3.3776,-3.3774,-3.3773,-3.3771,-3.3774,-3.3776,-3.3777,0,0,0,0,0,0,0,0,0,0,0,0,0,-3.3772,-3.3774,-3.3832,-3.3833,-3.3833,-3.3836,-3.3836,-3.3836,-3.3776,-3.3774,-3.3772,-3.377,-3.3774,-3.3776,-3.3778,0,0,0,0,0,0,0,0,0,0,0,0,0,-3.379,-3.3774,-3.3832,-3.3803,-3.38,-3.3836,-3.3836,-3.3836,-3.3776,-3.3774,-3.3772,-3.3769,-3.3773,-3.3775,-3.3778,-3.3842,0,0,-3.3785,-3.3786,0,0,0,0,0,0,0,0,-3.3789,-3.3792,-3.3807,-3.3805,-3.3802,-3.3803,-3.3816,-3.3838,-3.3777,-3.3786,-3.3771,-3.3768,-3.3786,-3.3787,-3.3793,-3.3842,-3.3842,-3.3785,-3.3787,-3.3788,-3.3789,0,0,0,0,0,0,0,-3.3788,-3.3791,-3.3834,-3.3808,-3.3805,-3.3789,-3.3789,-3.382,-3.3799,-3.3785,-3.378,-3.3782,-3.3784,-3.3791,-3.3793,-3.3842,-3.3785,-3.3787,-3.3789,-3.379,-3.3941,-3.3944,0,0,0,0,0,0,-3.379,-3.3791,-3.3834,-3.3834,-3.3789,-3.3792,-3.3792,-3.3805,-3.3799,-3.3796,-3.3784,-3.3779,-3.3788,-3.379,-3.3793,-3.3866,-3.3788,-3.379,-3.3792,-3.3939,-3.3942,-3.3945,0,0,0,0,0,0,-3.3789,-3.3795,-3.3834,-3.3811,-3.3815,-3.3796,-3.3811,-3.3807,-3.3813,-3.3798,-3.3794,-3.3795,-3.3786,-3.3789,-3.3829,-3.3865,-3.3791,-3.3793,-3.3936,-3.394,-3.3943,-3.4013,0,0,0,0,0,0,-3.3788,-3.3795,-3.3819,-3.3812,-3.3816,-3.3871,-3.3813,-3.3808,-3.3818,-3.3811,-3.3807,-3.3804,-3.3784,-3.3826,-3.3832,-3.3867,-3.3795,-3.3933,-3.3938,-3.3942,-3.4008,-3.4019,-3.4029,0,0,0,0,0,-3.3786,-3.3839,-3.3821,-3.3826,-3.3847,-3.3873,-3.3876,-3.3852,-3.3821,-3.3845,-3.3835,-3.3804,-3.386,-3.3831,-3.3837,-3.3873,-3.393,-3.3936,-3.3942,-3.4003,-3.4017,-3.4028,0,0,0,0,0,0,-3.3851,-3.3838,-3.3817,-3.387,-3.3873,-3.3863,-3.3893,-3.3867,-3.388,-3.3873,-3.3843,-3.3843,-3.3888,-3.3884,-3.3852,-3.3934,-3.389,-3.3897,-3.3934,-3.3947,-3.3957,-3.3957,-3.3797,0,0,0,0,0,-3.3872,-3.3895,-3.3882,-3.3929,-3.3932,-3.3912,-3.3923,-3.3904,-3.3906,-3.3908,-3.39,-3.3904,-3.3922,-3.3934,-3.395,-3.4007,-3.4005,-3.4035,-3.4045,-3.4054,-3.406,-3.4089,-3.4102,-3.3964,-3.3964,-3.3964,0,0,-3.3914,-3.391,-3.3926,-3.3942,-3.3942,-3.3966,-3.3914,-3.3942,-3.3959,-3.3912,-3.3949,-3.3944,-3.3945,-3.3994,-3.4015,-3.3993,-3.4098,-3.4061,-3.4068,-3.407,-3.4096,-3.4109,-3.4121,-3.3968,-3.3967,-3.3966,0,0,-3.4004,-3.4003,-3.4042,-3.4043,-3.4044,-3.4031,-3.404,-3.4034,-3.4028,-3.4065,-3.403,-3.405,-3.4082,-3.4084,-3.409,-3.4179,-3.4151,-3.4185,-3.424,-3.4268,-3.4279,-3.4288,-3.4319,-3.4331,-3.4191,-3.4192,-3.4192,0,-3.4057,-3.4092,-3.4065,-3.4095,-3.4103,-3.4061,-3.4099,-3.4102,-3.4108,-3.4114,-3.4089,-3.4127,-3.4125,-3.4173,-3.4195,-3.4201,-3.421,-3.4185,-3.4279,-3.4289,-3.4297,-3.4326,-3.4338,-3.4196,-3.4195,-3.4195,-3.4194,0,-3.4156,-3.4181,-3.4212,-3.4218,-3.4229,-3.4264,-3.4242,-3.4256,-3.4236,-3.4225,-3.4263,-3.4259,-3.4273,-3.4283,-3.4264,-3.4328,-3.4314,-3.4285,-3.424,-3.4315,-3.4341,-3.4352,-3.4201,-3.42,-3.4199,-3.4198,0,0,-3.4287,-3.4278,-3.429,-3.4292,-3.4289,-3.4308,-3.4339,-3.4353,-3.4365,-3.4371,-3.4396,-3.4424,-3.4396,-3.4402,-3.4383,-3.4408,-3.4478,-3.4376,-3.4375,-3.4394,-3.4547,-3.4568,-3.4582,-3.4459,-3.4461,-3.4463,-3.4546,0,-3.4374,-3.4427,-3.4404,-3.446,-3.4482,-3.4442,-3.4469,-3.447,-3.4461,-3.4477,-3.4466,-3.4486,-3.4449,-3.4452,-3.4475,-3.4465,-3.4508,-3.4458,-3.4482,-3.4483,-3.4483,-3.4596,-3.4619,-3.4698,-3.4557,-3.4559,-3.456,0,-3.4482,-3.4491,-3.4549,-3.4542,-3.455,-3.4575,-3.4585,-3.4601,-3.4602,-3.4593,-3.4599,-3.4574,-3.4604,-3.456,-3.46,-3.4567,-3.4575,-3.4572,-3.4574,-3.4575,-3.4526,-3.4599,-3.4723,-3.4734,-3.4576,-3.4575,-3.4574,0,-3.4571,-3.4598,-3.4636,-3.4639,-3.4631,-3.4649,-3.4647,-3.4645,-3.4654,-3.4662,-3.4667,-3.468,-3.4686,-3.4696,-3.4674,-3.4644,-3.4718,-3.4672,-3.471,-3.4711,-3.4727,-3.4727,-3.4853,-3.4734,-3.4734,-3.4734,-3.4733,0,-3.4669,-3.4706,-3.4675,-3.4699,-3.4738,-3.4711,-3.4751,-3.4744,-3.4742,-3.4763,-3.4729,-3.4749,-3.472,-3.4737,-3.4721,-3.4756,-3.476,-3.4753,-3.4748,-3.4756,-3.4757,-3.476,-3.4754,-3.4737,-3.4736,-3.4736,-3.4735,0,-3.4775,-3.4756,-3.4794,-3.4784,-3.4782,-3.4811,-3.4802,-3.4823,-3.481,-3.4837,-3.4842,-3.4822,-3.4841,-3.482,-3.4838,-3.4826,-3.4874,-3.4861,-3.4874,-3.487,-3.491,-3.4906,-3.5043,-3.5059,-3.493,-3.4931,-3.4933,0,-3.4839,-3.4866,-3.4858,-3.4869,-3.4869,-3.4888,-3.4896,-3.487,-3.488,-3.4882,-3.4903,-3.4918,-3.4929,-3.496,-3.4948,-3.496,-3.4947,-3.4994,-3.4949,-3.4956,-3.4947,-3.4945,-3.4948,-3.5004,-3.5005,-3.5006,-3.5007,0,-3.4954,-3.4943,-3.4957,-3.4967,-3.4978,-3.4986,-3.499,-3.5001,-3.4973,-3.4987,-3.5005,-3.5014,-3.5031,-3.5046,-3.5055,-3.5052,-3.5025,-3.5022,-3.5031,-3.5039,-3.5045,-3.5041,-3.4898,-3.5019,-3.5018,-3.5017,-3.5016,-3.5016,-3.504,-3.5062,-3.5059,-3.5076,-3.5076,-3.5081,-3.5099,-3.5089,-3.5103,-3.5115,-3.5098,-3.5121,-3.5119,-3.5128,-3.5128,-3.5145,-3.5125,-3.5139,-3.5143,-3.5146,-3.5152,-3.5043,-3.5147,-3.5147,-3.5146,-3.5146,-3.5146,0,-3.5153,-3.5149,-3.5164,-3.5171,-3.5183,-3.5156,-3.5159,-3.5172,-3.5192,-3.5193,-3.5204,-3.5224,-3.5239,-3.5227,-3.5239,-3.5255,-3.5243,-3.5259,-3.5258,-3.5257,-3.517,-3.516,-3.5269,-3.5269,-3.5269,-3.5269,-3.5269,-3.5269,-3.5213,-3.5248,-3.5236,-3.5271,-3.5266,-3.5288,-3.5292,-3.5296,-3.5296,-3.532,-3.5332,-3.5324,-3.5319,-3.5331,-3.5343,-3.5339,-3.5345,-3.5365,-3.5357,-3.5276,-3.5263,-3.5252,-3.5242,-3.5367,-3.5367,-3.5443,-3.5444,-3.5444]}]]